Tracking 19242 objects as of 15-Aug-2018
HD Live streaming from Space Station
objects crossing your sky now

SL-3 R/B

Track SL-3 R/B now!
10-day predictions
SL-3 R/B is classified as:


NORAD ID: 4814
Int'l Code: 1970-113B
Perigee: 452.8 km
Apogee: 489.2 km
Inclination: 81.1 °
Period: 93.9 minutes
Semi major axis: 6841 km
RCS: 6.542 m2 (large)
Launch date: December 18, 1970
Source: Commonwealth of Independent States (former USSR) (CIS)
Launch site: PLESETSK MISSILE AND SPACE COMPLEX (PKMTR)

Note: This is a ROCKET BODY
aabbcc
Your satellite tracking list
Your tracking list is empty




NASA's NSSDC Master Catalog

Two Line Element Set (TLE):
1  4814U 70113B   18226.91982320 +.00000867 +00000-0 +25099-4 0  9992
2  4814 081.1407 243.2537 0026583 065.3039 295.0962 15.34018720599980
Source of the keplerian elements: AFSPC